Regional Weather Roundup
Issued by NWS

Home | Current Version | Previous Version | Text Only | Print | Product List | Glossary Off
Versions: 1 2 3 4 5 6 7 8 9 10 11 12 13 14 15 16 17 18 19 20 21 22 23 24 25 26 27 28 29 30 31 32 33 34 35 36 37 38 39 40 41 42 43 44 45 46 47 48 49 50

000
ASUS43 KOAX 170002
RWRNE

WEATHER ROUNDUP FOR NEBRASKA
NATIONAL WEATHER SERVICE OMAHA NE
700 PM CDT WED AUG 16 2017

NOTES: SATELLITE DATA IS BEING USED TO AUGMENT CLOUD COVER ABOVE
       12000 FEET.
       "FAIR" INDICATES FEW OR NO CLOUDS BELOW 12,000 FEET WITH NO
       SIGNIFICANT WEATHER AND/OR OBSTRUCTIONS TO VISIBILITY.


NEZ001>004-019>022-054>056-170100-
NEBRASKA PANHANDLE

CITY           SKY/WX    TMP DP  RH WIND       PRES   REMARKS
SCOTTSBLUFF    SUNNY     78  46  32 CALM      30.05S
6HR MIN TEMP:  74; 6HR MAX TEMP:  80;

ALLIANCE       SUNNY     73  49  42 N8        30.04S
6HR MIN TEMP:  65; 6HR MAX TEMP:  75;

CHADRON        MOSUNNY   78  46  32 E5        30.00F
6HR MIN TEMP:  70; 6HR MAX TEMP:  79;

GORDON         FAIR      74  49  40 N8        30.01S
6HR MIN TEMP:  65; 6HR MAX TEMP:  76;

KIMBALL        SUNNY     74  45  35 N8        30.10S
SIDNEY         MOSUNNY   75  50  41 NE15      30.08S
6HR MIN TEMP:  69; 6HR MAX TEMP:  77;

$$

NEZ057>060-069>072-079>082-170100-
SOUTHWEST NEBRASKA

CITY           SKY/WX    TMP DP  RH WIND       PRES   REMARKS
NORTH PLATTE   MOSUNNY   72  58  61 N10       29.97S
6HR MIN TEMP:  66; 6HR MAX TEMP:  78; 6HR PCP:  0.01;

IMPERIAL       MOSUNNY   76  55  48 N12       30.00F
6HR MIN TEMP:  73; 6HR MAX TEMP:  80;

LEXINGTON      CLOUDY    72  61  67 NW14      29.94R
MCCOOK         SUNNY     75  61  61 N17       29.96S
6HR MIN TEMP:  67; 6HR MAX TEMP:  80; 6HR PCP:  0.07;

OGALLALA       SUNNY     73  55  53 N6        30.01S
$$

NEZ005>010-023>029-035>040-094-170100-
NORTH CENTRAL NEBRASKA

CITY           SKY/WX    TMP DP  RH WIND       PRES   REMARKS
VALENTINE      MOSUNNY   75  54  47 NW15G23   29.94S
6HR MIN TEMP:  64; 6HR MAX TEMP:  76; 6HR PCP:  0.09;

AINSWORTH      MOSUNNY   70  61  74 NW15      29.93F
BROKEN BOW     MOSUNNY   68  62  81 NW10      29.93S
6HR MIN TEMP:  66; 6HR MAX TEMP:  76; 6HR PCP:  0.25;

O`NEILL        CLOUDY    65  62  90 NW14G22   29.89S
ORD            LGT RAIN  68  62  81 NW10      29.88S
6HR MIN TEMP:  67; 6HR MAX TEMP:  76; 6HR PCP:  0.09;

THEDFORD       MOSUNNY   73  54  52 N15       29.96F
$$

NEZ041-046>049-061>064-073>077-083>087-170100-
SOUTH CENTRAL NEBRASKA

CITY           SKY/WX    TMP DP  RH WIND       PRES   REMARKS
GRAND ISLAND   MOSUNNY   71  65  81 NW14      29.87F
6HR MIN TEMP:  71; 6HR MAX TEMP:  81; 6HR PCP: TRACE;

AURORA         MOSUNNY   72  65  80 NW13      29.85F
HASTINGS       MOSUNNY   71  63  75 NW12      29.88F
6HR MIN TEMP:  71; 6HR MAX TEMP:  80;

HEBRON         SUNNY     80  64  58 NW9       29.83F
HOLDREGE       CLOUDY    68  64  85 NW3       29.93S
KEARNEY        MOSUNNY   71  63  75 NW12      29.91S
YORK           MOSUNNY   73  64  73 NW8       29.84S
$$

NEZ011>018-030>034-042>045-170100-
NORTHEAST NEBRASKA

CITY           SKY/WX    TMP DP  RH WIND       PRES   REMARKS
NORFOLK        LGT RAIN  69  64  84 NW13      29.80S
6HR MIN TEMP:  67; 6HR MAX TEMP:  74; 6HR PCP: TRACE;

ALBION         PTSUNNY   69  62  78 NW17G26   29.86S
BLAIR          MOSUNNY   75  66  73 W8        29.78S
COLUMBUS       MOSUNNY   71  65  81 NW14      29.82F
FREMONT        SUNNY     74  65  73 W9        29.79F
TEKAMAH        MOSUNNY   75  65  70 NW6       29.76F
6HR MIN TEMP:  75; 6HR MAX TEMP:  80; 6HR PCP: TRACE;

WAYNE          CLOUDY    71  68  90 NW8       29.79S
$$

NEZ050>053-065>068-078-088>093-170100-
SOUTHEAST NEBRASKA

CITY           SKY/WX    TMP DP  RH WIND       PRES   REMARKS
LINCOLN        SUNNY     79  65  62 NW9       29.80F
6HR MIN TEMP:  77; 6HR MAX TEMP:  83;

OMAHA EPPLEY   MOSUNNY   78  65  63 NW16      29.77R
6HR MIN TEMP:  78; 6HR MAX TEMP:  84;

BEATRICE       SUNNY     81  65  58 W8        29.81S
FALLS CITY     MOSUNNY   82  66  58 W7        29.79R
6HR MIN TEMP:  80; 6HR MAX TEMP:  85;

NEBRASKA CITY  SUNNY     80  66  62 W10       29.80R
PLATTSMOUTH    PTSUNNY   78  65  64 NW9       29.79R
$$

NEZ044-045-051>053-067-170100-
OMAHA AREA

CITY           SKY/WX    TMP DP  RH WIND       PRES   REMARKS
OMAHA EPPLEY   MOSUNNY   78  65  63 NW16      29.77R
6HR MIN TEMP:  78; 6HR MAX TEMP:  84;

BLAIR          MOSUNNY   75  66  73 W8        29.78S
FREMONT        SUNNY     74  65  73 W9        29.79F
MILLARD        MOSUNNY   79  68  68 NW9       29.78S
OFFUTT AFB     SUNNY     80  63  56 W15       29.77S
PLATTSMOUTH    PTSUNNY   78  65  64 NW9       29.79R
WAHOO          FAIR      75  65  72 NW7       29.80S
$$



USA.gov is the U.S. government's official web portal to all federal, state and local government web resources and services.